CW1729 Weather Reports


Display with metric or nautical units.
time (UTC)temp
F
wind
direction
speed
MPH
gust
MPH
rain 1hr
in
rain 24hr
in
rain mn
in
humidity
%
barometer
mb
20180526135713 82 299 5.0 5.0 0.00 0.00 0.00 73 1009.1
20180526135213 82 285 2.0 2.0 0.00 0.00 0.00 73 1009.1
20180526134713 82 299 2.0 4.0 0.00 0.00 0.00 73 1009.1
20180526134212 81 0 0.0 5.0 0.00 0.00 0.00 73 1009.1
20180526133712 81 330 3.0 11.0 0.00 0.00 0.00 73 1009.1
20180526133212 81 318 5.0 11.0 0.00 0.00 0.00 73 1009.1
20180526132712 80 294 2.0 18.0 0.00 0.00 0.00 73 1009.1
20180526132212 80 72 1.0 18.0 0.00 0.00 0.00 73 1009.1
20180526131712 80 0 2.0 7.0 0.00 0.00 0.00 73 1009.1
20180526131211 80 330 5.0 7.0 0.00 0.00 0.00 73 1009.1
20180526130711 80 268 1.0 5.0 0.00 0.00 0.00 73 1009.1
20180526130211 80 333 3.0 7.0 0.00 0.00 0.00 76 1009.1
20180526125711 79 312 5.0 7.0 0.00 0.00 0.00 75 1009.1
20180526125211 79 299 2.0 6.0 0.00 0.00 0.00 75 1009.1
20180526124711 79 344 1.0 5.0 0.00 0.00 0.00 75 1009.1
20180526124211 79 45 2.0 10.0 0.00 0.00 0.00 76 1008.9
20180526123711 79 322 0.0 10.0 0.00 0.00 0.00 76 1008.9
20180526123210 78 312 1.0 10.0 0.00 0.00 0.00 76 1008.9
20180526122710 78 346 3.0 10.0 0.00 0.00 0.00 77 1008.9
20180526122210 78 287 2.0 6.0 0.00 0.00 0.00 78 1008.9
20180526121710 78 356 2.0 6.0 0.00 0.00 0.00 79 1008.9
20180526121210 78 248 1.0 6.0 0.00 0.00 0.00 79 1008.9
20180526120709 77 285 1.0 5.0 0.00 0.00 0.00 79 1008.9
20180526120209 77 329 1.0 6.0 0.00 0.00 0.00 79 1008.9
20180526115709 77 20 1.0 6.0 0.00 0.00 0.00 82 1008.9
20180526115209 77 121 1.0 5.0 0.00 0.00 0.00 82 1008.9
20180526114709 76 130 1.0 4.0 0.00 0.00 0.00 82 1008.9
20180526114209 76 357 0.0 8.0 0.00 0.00 0.00 82 1008.8
20180526113709 76 261 0.0 8.0 0.00 0.00 0.00 83 1008.8
20180526113208 76 320 0.0 7.0 0.00 0.00 0.00 83 1008.8
20180526112709 75 319 7.0 7.0 0.00 0.00 0.00 84 1008.7
20180526112208 75 272 0.0 1.0 0.00 0.00 0.00 85 1008.7
20180526111708 75 359 0.0 4.0 0.00 0.00 0.00 87 1008.7
20180526111208 74 275 0.0 4.0 0.00 0.00 0.00 87 1008.7
20180526110708 74 336 0.0 1.0 0.00 0.00 0.00 86 1008.7
20180526110208 74 47 0.0 1.0 0.00 0.00 0.00 86 1008.7
20180526105708 73 295 0.0 5.0 0.00 0.00 0.00 87 1008.7
20180526105207 73 316 0.0 5.0 0.00 0.00 0.00 88 1008.7
20180526104707 72 312 0.0 3.0 0.00 0.00 0.00 88 1008.7
20180526104207 72 336 0.0 3.0 0.00 0.00 0.00 88 1008.7
20180526103707 72 330 2.0 2.0 0.00 0.00 0.00 89 1008.7
20180526103207 72 318 0.0 2.0 0.00 0.00 0.00 88 1008.7
20180526102706 72 311 0.0 1.0 0.00 0.00 0.00 88 1008.6
20180526102206 72 311 0.0 1.0 0.00 0.00 0.00 89 1008.6
20180526101706 72 34 0.0 0.0 0.00 0.00 0.00 89 1008.6
20180526101206 72 47 0.0 3.0 0.00 0.00 0.00 89 1008.5
20180526100706 72 10 0.0 6.0 0.00 0.00 0.00 88 1008.5
20180526100206 72 3 0.0 6.0 0.00 0.00 0.00 88 1008.5
20180526095706 72 181 0.0 2.0 0.00 0.00 0.00 88 1008.5
20180526095206 72 181 1.0 2.0 0.00 0.00 0.00 88 1008.5
20180526094706 72 88 0.0 0.0 0.00 0.00 0.00 88 1008.5
20180526094206 72 178 0.0 0.0 0.00 0.00 0.00 87 1008.5
20180526093705 72 72 0.0 1.0 0.00 0.00 0.00 87 1008.5
20180526093205 72 357 0.0 1.0 0.00 0.00 0.00 87 1008.5
20180526092705 72 17 0.0 3.0 0.00 0.00 0.00 86 1008.5
20180526092205 72 113 0.0 3.0 0.00 0.00 0.00 86 1008.5
20180526091705 72 195 0.0 2.0 0.00 0.00 0.00 86 1008.5
20180526091204 72 253 0.0 3.0 0.00 0.00 0.00 86 1008.5
20180526090705 72 264 1.0 3.0 0.00 0.00 0.00 85 1008.5
20180526090204 72 285 0.0 2.0 0.00 0.00 0.00 85 1008.5
20180526085704 73 330 0.0 2.0 0.00 0.00 0.00 85 1008.5
20180526085204 73 189 0.0 0.0 0.00 0.00 0.00 85 1008.5
20180526084704 73 141 0.0 2.0 0.00 0.00 0.00 85 1008.5
20180526084204 73 257 0.0 2.0 0.00 0.00 0.00 85 1008.7
20180526083704 72 312 0.0 2.0 0.00 0.00 0.00 85 1008.7
20180526083203 72 320 0.0 2.0 0.00 0.00 0.00 84 1008.7
20180526082703 72 65 0.0 0.0 0.00 0.00 0.00 85 1008.6
20180526082203 72 93 0.0 0.0 0.00 0.00 0.00 84 1008.6
20180526081703 72 41 0.0 0.0 0.00 0.00 0.00 84 1008.6
20180526081203 72 257 0.0 0.0 0.00 0.00 0.00 84 1008.6
20180526080702 72 257 0.0 0.0 0.00 0.00 0.00 84 1008.6
20180526080203 72 277 0.0 0.0 0.00 0.00 0.00 84 1008.6
20180526075702 72 277 0.0 2.0 0.00 0.00 0.00 84 1008.5
20180526075202 72 275 0.0 2.0 0.00 0.00 0.00 83 1008.5
20180526074702 72 145 0.0 0.0 0.00 0.00 0.00 83 1008.5
20180526074202 72 188 0.0 0.0 0.00 0.00 0.00 83 1008.7
20180526073702 73 188 0.0 0.0 0.00 0.00 0.00 83 1008.7
20180526073201 73 188 0.0 1.0 0.00 0.00 0.00 82 1008.7
20180526072703 73 278 0.0 1.0 0.00 0.00 0.00 82 1008.7
20180526072203 73 285 0.0 0.0 0.00 0.00 0.00 82 1008.7
20180526071701 73 186 0.0 0.0 0.00 0.00 0.00 81 1008.7
20180526071201 73 323 0.0 0.0 0.00 0.00 0.00 81 1009.0
20180526070701 73 323 0.0 0.0 0.00 0.00 0.00 81 1009.0
20180526070201 73 323 0.0 0.0 0.00 0.00 0.00 81 1009.0
20180526065701 73 325 0.0 0.0 0.00 0.00 0.00 81 1009.0
20180526065201 73 357 0.0 0.0 0.00 0.00 0.00 80 1009.0
20180526064700 73 1 0.0 0.0 0.00 0.00 0.00 80 1009.0
20180526064200 73 339 0.0 2.0 0.00 0.00 0.00 80 1009.1
20180526063700 73 352 0.0 2.0 0.00 0.00 0.00 80 1009.1
20180526063200 73 54 0.0 2.0 0.00 0.00 0.00 80 1009.1
20180526062700 73 172 0.0 2.0 0.00 0.00 0.00 80 1009.3
20180526062200 73 167 0.0 0.0 0.00 0.00 0.00 80 1009.3
20180526061659 73 83 0.0 1.0 0.00 0.00 0.00 80 1009.3
20180526061159 73 167 0.0 1.0 0.00 0.00 0.00 80 1009.4
20180526060659 73 58 0.0 1.0 0.00 0.00 0.00 80 1009.4
20180526060200 73 171 0.0 2.0 0.00 0.00 0.00 81 1009.4
20180526055659 73 220 0.0 2.0 0.00 0.00 0.00 81 1009.5
20180526055159 73 120 0.0 0.0 0.00 0.00 0.00 81 1009.5
20180526054658 73 226 0.0 0.0 0.00 0.00 0.00 81 1009.5
20180526054158 73 179 0.0 0.0 0.00 0.00 0.00 81 1009.5
20180526053658 73 175 0.0 0.0 0.00 0.00 0.00 82 1009.5
20180526053158 73 120 0.0 0.0 0.00 0.00 0.00 82 1009.5
20180526052658 73 82 0.0 1.0 0.00 0.00 0.00 82 1009.5
20180526052158 73 106 0.0 1.0 0.00 0.00 0.00 83 1009.5
20180526051658 73 114 1.0 1.0 0.00 0.00 0.00 84 1009.5
20180526051157 73 260 0.0 0.0 0.00 0.00 0.00 84 1009.6
20180526050657 73 288 0.0 1.0 0.00 0.00 0.00 84 1009.6
20180526050157 73 294 0.0 1.0 0.00 0.00 0.00 84 1009.6
20180526045657 73 251 0.0 1.0 0.00 0.00 0.00 84 1009.7
20180526045157 73 254 0.0 0.0 0.00 0.00 0.00 85 1009.7
20180526044657 73 289 0.0 0.0 0.00 0.00 0.00 85 1009.7
20180526044157 73 267 0.0 3.0 0.00 0.00 0.00 85 1009.7
20180526043656 73 176 0.0 3.0 0.00 0.00 0.00 85 1009.7
20180526043156 73 277 0.0 1.0 0.00 0.00 0.00 85 1009.7
20180526042156 73 339 0.0 0.0 0.00 0.00 0.00 85 1009.7
20180526041656 73 66 0.0 1.0 0.00 0.00 0.00 86 1009.7
20180526041156 73 162 0.0 1.0 0.00 0.00 0.00 86 1009.8
20180526040656 73 148 0.0 0.0 0.00 0.00 0.00 86 1009.8
20180526040156 73 130 0.0 0.0 0.00 0.00 0.00 86 1009.8
20180526035655 73 161 0.0 0.0 0.00 0.00 0.00 86 1009.9
20180526035155 73 176 0.0 0.0 0.00 0.00 0.00 86 1009.9
20180526034655 73 179 0.0 0.0 0.00 0.00 0.00 85 1009.9
20180526034155 73 169 0.0 0.0 0.00 0.00 0.00 85 1010.0
20180526033655 73 169 0.0 1.0 0.00 0.00 0.00 85 1010.0
20180526033155 73 165 0.0 1.0 0.00 0.00 0.00 85 1010.0
20180526032655 73 280 0.0 0.0 0.00 0.00 0.00 85 1010.1
20180526032154 73 270 0.0 1.0 0.00 0.00 0.00 85 1010.1
20180526031654 73 195 0.0 2.0 0.00 0.00 0.00 85 1010.1
20180526031154 73 152 0.0 2.0 0.00 0.00 0.00 84 1010.2
20180526030654 73 216 0.0 1.0 0.00 0.00 0.00 84 1010.2
20180526030154 73 155 0.0 1.0 0.00 0.00 0.00 83 1010.2
20180526025654 73 230 0.0 0.0 0.00 0.00 0.00 83 1010.2
20180526025154 73 265 0.0 0.0 0.00 0.00 0.00 83 1010.2
20180526024653 73 278 0.0 0.0 0.00 0.00 0.00 83 1010.2
20180526024153 73 280 0.0 0.0 0.00 0.00 0.00 81 1010.4
20180526023653 73 280 0.0 2.0 0.00 0.00 0.00 81 1010.4
20180526023153 74 280 0.0 2.0 0.00 0.00 0.00 81 1010.4
20180526022653 74 196 0.0 0.0 0.00 0.00 0.00 81 1010.4
20180526022153 74 250 0.0 0.0 0.00 0.00 0.00 81 1010.4
20180526021653 74 247 0.0 3.0 0.00 0.00 0.00 80 1010.4
20180526021153 74 319 0.0 3.0 0.00 0.00 0.00 80 1010.4
20180526020652 74 151 0.0 2.0 0.00 0.00 0.00 79 1010.4
20180526020152 74 27 1.0 2.0 0.00 0.00 0.00 79 1010.4
20180526015652 74 288 0.0 3.0 0.00 0.00 0.00 78 1010.3
20180526015152 74 219 0.0 3.0 0.00 0.00 0.00 78 1010.3
20180526014721 74 0 0.0 2.0 0.00 0.00 0.00 77 1010.3
20180526014222 74 216 1.0 2.0 0.00 0.00 0.00 75 1010.2
20180526013651 74 196 0.0 1.0 0.00 0.00 0.00 75 1010.2
20180526013221 74 248 0.0 1.0 0.00 0.00 0.00 75 1010.2
20180526012651 74 191 1.0 2.0 0.00 0.00 0.00 75 1010.3
20180526012151 74 198 1.0 3.0 0.00 0.00 0.00 75 1010.3
20180526011721 74 68 0.0 3.0 0.00 0.00 0.00 74 1010.3
20180526011151 75 189 0.0 1.0 0.00 0.00 0.00 74 1010.2
20180526010651 75 244 0.0 2.0 0.00 0.00 0.00 73 1010.2
20180526010221 75 199 0.0 2.0 0.00 0.00 0.00 72 1010.2
20180526005650 75 51 0.0 6.0 0.00 0.00 0.00 71 1010.0
20180526005150 75 343 0.0 6.0 0.00 0.00 0.00 71 1010.0
20180526004720 75 172 0.0 5.0 0.00 0.00 0.00 69 1010.0
20180526004150 75 179 0.0 5.0 0.00 0.00 0.00 69 1010.1
20180526003720 75 175 0.0 4.0 0.00 0.00 0.00 68 1010.1
20180526003219 76 158 0.0 4.0 0.00 0.00 0.00 68 1010.1
20180526002719 76 123 0.0 3.0 0.00 0.00 0.00 68 1010.2
20180526002219 76 120 0.0 3.0 0.00 0.00 0.00 67 1010.2
20180526001649 77 130 0.0 2.0 0.00 0.00 0.00 66 1010.2
20180526001149 77 185 0.0 2.0 0.00 0.00 0.00 66 1010.3
20180526000719 77 186 0.0 3.0 0.00 0.00 0.00 66 1010.3
20180526000219 77 209 0.0 3.0 0.00 0.00 0.00 65 1010.3
20180525235719 77 34 0.0 3.0 0.00 0.00 0.00 65 1010.2
20180525235219 77 284 0.0 5.0 0.00 0.00 0.00 65 1010.2
20180525234718 78 148 1.0 5.0 0.00 0.00 0.00 64 1010.2
20180525234218 78 340 1.0 2.0 0.00 0.00 0.00 64 1010.2
20180525233718 79 261 0.0 2.0 0.00 0.00 0.00 62 1010.2
20180525233218 79 41 1.0 2.0 0.00 0.00 0.00 62 1010.2
20180525232717 79 21 0.0 2.0 0.00 0.00 0.00 61 1010.2
20180525232218 79 226 1.0 3.0 0.00 0.00 0.00 61 1010.2
20180525231717 79 294 1.0 3.0 0.00 0.00 0.00 59 1010.2
20180525231217 80 158 0.0 4.0 0.00 0.00 0.00 59 1010.2
20180525230718 80 222 1.0 5.0 0.00 0.00 0.00 59 1010.2
20180525230217 80 285 4.0 5.0 0.00 0.00 0.00 59 1010.2
20180525225717 80 193 0.0 5.0 0.00 0.00 0.00 59 1010.2
20180525225216 81 66 0.0 5.0 0.00 0.00 0.00 59 1010.2
20180525224716 81 13 1.0 5.0 0.00 0.00 0.00 59 1010.2
20180525224216 81 233 0.0 5.0 0.00 0.00 0.00 58 1010.2
20180525223716 81 164 0.0 5.0 0.00 0.00 0.00 58 1010.2
20180525223216 81 10 2.0 3.0 0.00 0.00 0.00 58 1010.2
20180525222716 81 165 2.0 3.0 0.00 0.00 0.00 58 1010.4
20180525222215 81 151 1.0 3.0 0.00 0.00 0.00 56 1010.4
20180525221716 82 58 0.0 3.0 0.00 0.00 0.00 56 1010.4
20180525221215 82 267 0.0 7.0 0.00 0.00 0.00 56 1010.5
20180525220715 82 182 1.0 7.0 0.00 0.00 0.00 56 1010.5
20180525220215 82 150 3.0 3.0 0.00 0.00 0.00 56 1010.5
20180525215715 82 328 3.0 3.0 0.00 0.00 0.00 56 1010.6
20180525215215 82 328 3.0 3.0 0.00 0.00 0.00 56 1010.6
20180525214715 82 328 3.0 3.0 0.00 0.00 0.00 56 1010.6
20180525214215 82 328 3.0 3.0 0.00 0.00 0.00 56 1010.6
20180525213714 82 328 3.0 3.0 0.00 0.00 0.00 56 1010.6
20180525213214 82 328 3.0 3.0 0.00 0.00 0.00 56 1010.6
20180525212714 82 328 3.0 5.0 0.00 0.00 0.00 56 1010.8
20180525212214 82 328 3.0 5.0 0.00 0.00 0.00 56 1010.8
20180525211714 82 133 5.0 5.0 0.00 0.00 0.00 56 1010.8
20180525211213 82 121 3.0 4.0 0.00 0.00 0.00 56 1010.9
20180525210713 82 171 4.0 6.0 0.00 0.00 0.00 57 1010.9
20180525210213 82 186 0.0 7.0 0.00 0.00 0.00 57 1010.9
20180525205713 82 103 1.0 7.0 0.00 0.00 0.00 56 1011.1
20180525205213 83 254 2.0 7.0 0.00 0.00 0.00 57 1011.1
20180525204713 83 154 1.0 7.0 0.00 0.00 0.00 56 1011.1
20180525204213 83 144 7.0 7.0 0.00 0.00 0.00 56 1011.1
20180525203713 83 150 2.0 7.0 0.00 0.00 0.00 56 1011.1
20180525203212 83 119 1.0 6.0 0.00 0.00 0.00 56 1011.1
20180525202712 83 136 3.0 5.0 0.00 0.00 0.00 56 1011.2
20180525202212 83 13 3.0 7.0 0.00 0.00 0.00 56 1011.2
20180525201712 83 250 3.0 7.0 0.00 0.00 0.00 56 1011.2
20180525201212 83 350 5.0 5.0 0.00 0.00 0.00 56 1011.5
20180525200712 83 4 2.0 5.0 0.00 0.00 0.00 56 1011.5
20180525200212 83 123 4.0 4.0 0.00 0.00 0.00 56 1011.5
20180525195711 83 86 2.0 11.0 0.00 0.00 0.00 56 1011.6
20180525195211 83 143 1.0 11.0 0.00 0.00 0.00 56 1011.6
20180525194711 83 322 2.0 4.0 0.00 0.00 0.00 56 1011.6
20180525194211 83 226 4.0 4.0 0.00 0.00 0.00 57 1011.7
20180525193711 83 329 2.0 8.0 0.00 0.00 0.00 57 1011.7
20180525193211 83 112 1.0 8.0 0.00 0.00 0.00 57 1011.7
20180525192711 83 113 2.0 3.0 0.00 0.00 0.00 57 1011.8
20180525192210 84 32 1.0 5.0 0.00 0.00 0.00 57 1011.8
20180525191710 84 0 2.0 5.0 0.00 0.00 0.00 57 1011.8
20180525191210 84 181 2.0 5.0 0.00 0.00 0.00 58 1012.1
20180525190710 84 233 2.0 2.0 0.00 0.00 0.00 58 1012.1
20180525190210 83 322 2.0 8.0 0.00 0.00 0.00 58 1012.1
20180525185710 83 171 1.0 8.0 0.00 0.00 0.00 58 1012.4
20180525185210 83 127 8.0 8.0 0.00 0.00 0.00 58 1012.4
20180525184709 84 302 6.0 7.0 0.00 0.00 0.00 58 1012.4
20180525184209 84 357 7.0 7.0 0.00 0.00 0.00 58 1012.6
20180525183709 84 295 3.0 8.0 0.00 0.00 0.00 58 1012.6
20180525183209 84 121 6.0 8.0 0.00 0.00 0.00 58 1012.6
20180525182709 84 150 2.0 8.0 0.00 0.00 0.00 58 1012.7
20180525182209 84 323 2.0 8.0 0.00 0.00 0.00 58 1012.7
20180525181708 83 11 2.0 6.0 0.00 0.00 0.00 60 1012.7
20180525181209 83 25 4.0 6.0 0.00 0.00 0.00 60 1012.9
20180525180708 83 140 3.0 7.0 0.00 0.00 0.00 58 1012.9
20180525180208 83 182 1.0 7.0 0.00 0.00 0.00 57 1012.9
20180525175708 83 152 7.0 7.0 0.00 0.00 0.00 57 1013.1
20180525175208 84 220 5.0 5.0 0.00 0.00 0.00 57 1013.1
20180525174707 84 3 1.0 3.0 0.00 0.00 0.00 55 1013.1
20180525174208 84 311 3.0 3.0 0.00 0.00 0.00 55 1013.2
20180525173708 84 85 2.0 5.0 0.00 0.00 0.00 55 1013.2
20180525173207 84 337 2.0 5.0 0.00 0.00 0.00 59 1013.2
20180525172707 83 186 2.0 10.0 0.00 0.00 0.00 57 1013.6
20180525172207 83 295 2.0 10.0 0.00 0.00 0.00 58 1013.6
20180525171707 84 320 5.0 5.0 0.00 0.00 0.00 54 1013.6
20180525171207 84 154 1.0 5.0 0.00 0.00 0.00 54 1013.8
20180525170707 84 337 2.0 7.0 0.00 0.00 0.00 54 1013.8
20180525170206 83 332 0.0 7.0 0.00 0.00 0.00 54 1013.8
20180525165706 83 44 1.0 8.0 0.00 0.00 0.00 54 1014.0
20180525165206 83 178 6.0 8.0 0.00 0.00 0.00 54 1014.0
20180525164706 83 154 2.0 6.0 0.00 0.00 0.00 54 1014.0
20180525164206 83 100 2.0 5.0 0.00 0.00 0.00 54 1014.2
20180525163706 83 339 2.0 6.0 0.00 0.00 0.00 54 1014.2
20180525163206 83 292 2.0 6.0 0.00 0.00 0.00 54 1014.2
20180525162705 83 354 2.0 7.0 0.00 0.00 0.00 54 1014.3
20180525162206 83 28 2.0 7.0 0.00 0.00 0.00 54 1014.3
20180525161705 82 325 7.0 7.0 0.00 0.00 0.00 54 1014.3
20180525161205 82 258 5.0 6.0 0.00 0.00 0.00 58 1014.5
20180525160705 82 86 2.0 6.0 0.00 0.00 0.00 58 1014.5
20180525160205 82 329 2.0 6.0 0.00 0.00 0.00 58 1014.5
20180525155704 82 275 2.0 8.0 0.00 0.00 0.00 58 1014.8
20180525155204 82 275 2.0 8.0 0.00 0.00 0.00 58 1014.8
20180525154704 82 186 2.0 4.0 0.00 0.00 0.00 59 1014.8
20180525154204 82 0 2.0 3.0 0.00 0.00 0.00 59 1014.8
20180525153705 81 66 0.0 3.0 0.00 0.00 0.00 59 1014.8
20180525153204 81 164 1.0 3.0 0.00 0.00 0.00 60 1014.8
20180525152704 81 354 1.0 5.0 0.00 0.00 0.00 60 1015.0
20180525152203 81 23 1.0 5.0 0.00 0.00 0.00 60 1015.0
20180525151703 81 337 5.0 7.0 0.00 0.00 0.00 60 1015.0
20180525151203 81 309 5.0 7.0 0.00 0.00 0.00 62 1015.1
20180525150703 81 329 2.0 2.0 0.00 0.00 0.00 62 1015.1
20180525150203 81 41 1.0 5.0 0.00 0.00 0.00 62 1015.1
20180525145703 81 312 2.0 5.0 0.00 0.00 0.00 62 1015.2
20180525145203 81 68 2.0 7.0 0.00 0.00 0.00 62 1015.2
20180525144703 81 258 0.0 7.0 0.00 0.00 0.00 62 1015.2
20180525144202 81 323 1.0 4.0 0.00 0.00 0.00 66 1015.3
20180525143702 81 155 2.0 3.0 0.00 0.00 0.00 66 1015.3
20180525143202 81 188 1.0 3.0 0.00 0.00 0.00 66 1015.3
20180525142702 80 0 3.0 3.0 0.00 0.00 0.00 66 1015.4
20180525142202 80 315 1.0 4.0 0.00 0.00 0.00 66 1015.4
20180525141702 79 85 1.0 5.0 0.00 0.00 0.00 66 1015.4
20180525141202 79 131 4.0 5.0 0.00 0.00 0.00 66 1015.7
20180525140701 79 322 3.0 3.0 0.00 0.00 0.00 69 1015.7
20180525140201 79 349 3.0 3.0 0.00 0.00 0.00 69 1015.7